{"data":{"norad_id":61776,"intl_designator":"2024-199AT","name":"SITRO-AIS 40","alt_names":[],"object_type":"PAYLOAD","status":"ACTIVE","operator":null,"country":"CIS","launch_date":"2024-11-04","launch_site_code":"VOSTO","launch_vehicle":null,"mission":null,"orbit_class":"UNKNOWN","rcs_meters":null,"size_class":null,"mass_kg":null,"dimensions":null,"purposes":[],"wikipedia_slug":null,"has_3d_model":false,"image_url":null,"decayed_at":null,"tle_current":{"epoch":"2026-05-25T03:16:58.674144Z","epoch_age_seconds":59186,"freshness":"FRESH","line1":"1 61776U 24199AT  26145.13679021  .00052526  00000+0  69432-3 0  9995","line2":"2 61776  97.2933  21.1186 0006951  34.4067 325.7638 15.58161721134038","mean_motion":15.58161721,"eccentricity":0.0006951,"inclination_deg":97.2933,"raan_deg":21.1186,"arg_perigee_deg":34.4067,"mean_anomaly_deg":325.7638,"bstar":0.00069432,"rev_number":13403,"period_min":92.416594541665,"perigee_km":388.27083952578,"apogee_km":397.6840428219,"semimajor_km":6771.1144411738,"source":"CELESTRAK","updated_at":"2026-05-25T13:38:02.560744Z"}}}